Back to catalog

DELTA 1 DEB

AliveSSO
NORAD 42649·DEBRIS·🇺🇸 United States

Launched Jun 12, 1975 from Vandenberg Space Force Base

Loading…

Next Passes (next 24 hours)

TLE

StaleSource: Space-Track

Epoch: Aug 25, 2026, 08:31 UTC

1 42649U 75052MJ  26237.35506158  .00000032  00000-0  13675-3 0  9997
2 42649  99.7454 101.7863 0035658  67.9953 292.4958 13.39213048628231

Track DELTA 1 DEB in real time with AllMySat

Download on the App Store